Weather History for KDOV - May, 2013

Change the Weather History Date:

Thursday, May 2, 2013

  Actual Average Record
Temperature  
Mean Temperature 52 °F -  
Max Temperature 64 °F 73 °F 86 °F (1985)
Min Temperature 42 °F 50 °F 37 °F (1963)
Degree Days  
Heating Degree Days 12    
Growing Degree Days 2 (Base 50)    
Moisture  
Dew Point 47 °F    
Average Humidity 85    
Maximum Humidity 100    
Minimum Humidity 53    
Precipitation  
Precipitation 0.00 in - - ()
Sea Level Pressure  
Sea Level Pressure 30.40 in    
Wind  
Wind Speed 8 mph (ENE)    
Max Wind Speed 14 mph    
Max Gust Speed 17 mph    
Visibility 10 miles    
Events      
Averages and records for this station are not official NWS values.
T = Trace of Precipitation, MM = Missing Value Source: NWS Daily Summary

Daily Weather History Graph

Daily Weather History Graph

Search for Another Location

Airport or City:

Trip Planner

Search our weather history database for the weather conditions in past years. The results will help you decide how hot, cold, wet, or windy it might be!

Date:

Astronomy

May. 02, 2013 Rise Set
Actual Time 6:02 AM EDT 7:56 PM EDT
Civil Twilight 5:33 AM EDT 8:25 PM EDT
Nautical Twilight 4:57 AM EDT 9:00 PM EDT
Astronomical Twilight 4:20 AM EDT 9:38 PM EDT
Moon 1:44 AM EDT (5/2) 12:46 PM EDT (5/2)
Length of Visible Light 14h 51m
Length of Day
13h 53m
Waning Gibbous, 48% of the Moon is Illuminated
May 2
Waning Gibbous
May 9
New
May 18
First Quarter
May 25
Full
May 31
Last Quarter

Hourly Weather History & Observations

Time (EDT) Temp. Windchill Dew Point Humidity Pressure Visibility Wind Dir Wind Speed Gust Speed Precip Events Conditions
12:55 AM 47.7 °F - 46.9 °F 97% 30.42 in 10.0 mi ENE 8.1 mph - N/A   Clear
1:12 AM 48.2 °F - 48.2 °F 100% 30.42 in 10.0 mi ENE 9.2 mph - N/A   Partly Cloudy
1:21 AM 48.2 °F - 48.2 °F 100% 30.42 in 10.0 mi ENE 13.8 mph - N/A   Mostly Cloudy
1:37 AM 48.2 °F - 48.2 °F 100% 30.41 in 10.0 mi ENE 11.5 mph - N/A   Overcast
1:55 AM 48.9 °F - 48.7 °F 99% 30.41 in 10.0 mi East 10.4 mph - N/A   Overcast
2:18 AM 50.0 °F - 48.2 °F 94% 30.40 in 10.0 mi East 5.8 mph - N/A   Overcast
2:55 AM 49.8 °F - 49.6 °F 99% 30.40 in 10.0 mi ENE 6.9 mph - N/A   Overcast
3:12 AM 48.2 °F - 48.2 °F 100% 30.40 in 10.0 mi NE 4.6 mph - N/A   Mostly Cloudy
3:55 AM 48.0 °F - 47.8 °F 99% 30.40 in 10.0 mi NE 4.6 mph - N/A   Overcast
4:12 AM 46.4 °F 45.2 °F 46.4 °F 100% 30.40 in 10.0 mi NNE 3.5 mph - N/A   Overcast
4:18 AM 46.4 °F 45.2 °F 46.4 °F 100% 30.40 in 10.0 mi NNE 3.5 mph - N/A   Overcast
4:55 AM 47.5 °F - 47.3 °F 99% 30.40 in 10.0 mi NE 3.5 mph - N/A   Overcast
5:14 AM 46.4 °F 44.3 °F 46.4 °F 100% 30.40 in 10.0 mi NNE 4.6 mph - N/A   Overcast
5:23 AM 44.6 °F 42.2 °F 44.6 °F 100% 30.40 in 10.0 mi NNE 4.6 mph - N/A   Scattered Clouds
5:55 AM 42.4 °F 38.8 °F 42.3 °F 99% 30.40 in 10.0 mi NNE 5.8 mph - N/A   Clear
6:05 AM 42.8 °F 38.6 °F 42.8 °F 100% 30.40 in 10.0 mi North 6.9 mph - N/A   Partly Cloudy
6:55 AM 45.3 °F 44.0 °F 45.0 °F 99% 30.42 in 10.0 mi North 3.5 mph - N/A   Partly Cloudy
7:28 AM 50.0 °F - 50.0 °F 100% 30.43 in 10.0 mi NE 3.5 mph - N/A   Mostly Cloudy
7:55 AM 51.8 °F - 50.0 °F 94% 30.43 in 10.0 mi North 8.1 mph - N/A   Overcast
8:55 AM 54.0 °F - 50.7 °F 89% 30.44 in 10.0 mi ENE 9.2 mph - N/A   Overcast
9:15 AM 55.4 °F - 50.0 °F 82% 30.44 in 10.0 mi ENE 9.2 mph - N/A   Scattered Clouds
9:55 AM 56.8 °F - 50.4 °F 79% 30.44 in 10.0 mi ENE 11.5 mph - N/A   Partly Cloudy
10:55 AM 59.4 °F - 52.0 °F 77% 30.44 in 10.0 mi Variable 6.9 mph - N/A   Clear
11:55 AM 61.0 °F - 48.7 °F 64% 30.44 in 10.0 mi ENE 9.2 mph - N/A   Clear
12:55 PM 61.5 °F - 48.7 °F 63% 30.42 in 10.0 mi East 8.1 mph - N/A   Clear
1:55 PM 62.2 °F - 46.9 °F 57% 30.42 in 10.0 mi East 5.8 mph - N/A   Clear
2:55 PM 63.0 °F - 45.9 °F 54% 30.41 in 10.0 mi East 9.2 mph - N/A   Clear
3:55 PM 63.3 °F - 46.0 °F 53% 30.39 in 10.0 mi ESE 6.9 mph - N/A   Clear
4:55 PM 62.2 °F - 45.9 °F 55% 30.38 in 10.0 mi ESE 11.5 mph 17.3 mph N/A   Clear
5:55 PM 61.2 °F - 44.6 °F 54% 30.36 in 10.0 mi SE 9.2 mph - N/A   Clear
6:55 PM 58.6 °F - 45.3 °F 61% 30.35 in 10.0 mi ESE 10.4 mph - N/A   Clear
7:55 PM 54.9 °F - 45.5 °F 71% 30.34 in 10.0 mi SE 5.8 mph - N/A   Clear
8:55 PM 53.2 °F - 45.1 °F 74% 30.34 in 10.0 mi East 5.8 mph - N/A   Clear
9:55 PM 52.9 °F - 45.9 °F 77% 30.33 in 10.0 mi East 4.6 mph - N/A   Clear
10:55 PM 51.1 °F - 46.2 °F 83% 30.33 in 10.0 mi Calm Calm - N/A   Clear
11:55 PM 49.3 °F - 46.8 °F 91% 30.33 in 10.0 mi SSW 4.6 mph - N/A   Clear